Time,TemperatureF,DewpointF,PressureIn,WindDirection,WindDirectionDegrees,WindSpeedMPH,WindSpeedGustMPH,Humidity,HourlyPrecipIn,Conditions,Clouds,dailyrainin,SoftwareType,DateUTC
2013-03-14 00:00:00,29.0,26.2,29.73,South,180,1.0,5.0,89,0.00,,,0.00,Weather View 32 v70,2013-03-14 04:00:00,
2013-03-14 00:05:00,29.0,26.2,29.73,WSW,248,1.0,5.0,89,0.00,,,0.00,Weather View 32 v70,2013-03-14 04:05:00,
2013-03-14 00:10:00,29.0,26.4,29.73,SSE,158,0.0,5.0,90,0.00,,,0.00,Weather View 32 v70,2013-03-14 04:10:00,
2013-03-14 00:15:00,28.0,25.7,29.73,SW,225,0.0,5.0,91,0.00,,,0.00,Weather View 32 v70,2013-03-14 04:15:00,
2013-03-14 00:20:00,28.0,26.0,29.73,SE,135,0.0,5.0,92,0.00,,,0.00,Weather View 32 v70,2013-03-14 04:20:00,
2013-03-14 00:25:00,28.0,26.2,29.73,SE,135,1.0,5.0,93,0.00,,,0.00,Weather View 32 v70,2013-03-14 04:25:00,
2013-03-14 00:30:00,28.0,26.2,29.73,SW,225,0.0,4.0,93,0.00,,,0.00,Weather View 32 v70,2013-03-14 04:30:00,
2013-03-14 00:35:00,28.0,26.2,29.73,West,270,1.0,4.0,93,0.00,,,0.00,Weather View 32 v70,2013-03-14 04:35:00,
2013-03-14 00:40:00,27.0,25.5,29.73,WNW,292,1.0,4.0,94,0.00,,,0.00,Weather View 32 v70,2013-03-14 04:40:00,
2013-03-14 00:45:00,27.0,25.5,29.73,WNW,292,0.0,4.0,94,0.00,,,0.00,Weather View 32 v70,2013-03-14 04:45:00,
2013-03-14 00:50:00,27.0,25.8,29.73,SSW,202,0.0,4.0,95,0.00,,,0.00,Weather View 32 v70,2013-03-14 04:50:00,
2013-03-14 00:55:00,27.0,25.8,29.73,South,180,0.0,3.0,95,0.00,,,0.00,Weather View 32 v70,2013-03-14 04:55:00,
2013-03-14 01:00:00,27.0,25.8,29.73,WNW,292,4.0,6.0,95,0.00,,,0.00,Weather View 32 v70,2013-03-14 05:00:00,
2013-03-14 01:05:00,28.0,26.8,29.73,WSW,248,2.0,6.0,95,0.00,,,0.00,Weather View 32 v70,2013-03-14 05:05:00,
2013-03-14 01:10:00,29.0,27.5,29.73,West,270,2.0,6.0,94,0.00,,,0.00,Weather View 32 v70,2013-03-14 05:10:00,
2013-03-14 01:15:00,30.0,28.0,29.73,SW,225,4.0,8.0,92,0.00,,,0.00,Weather View 32 v70,2013-03-14 05:15:00,
2013-03-14 01:20:00,30.0,27.2,29.73,SSE,158,6.0,8.0,89,0.00,,,0.00,Weather View 32 v70,2013-03-14 05:20:00,
2013-03-14 01:25:00,31.0,27.0,29.73,SW,225,2.0,8.0,85,0.00,,,0.00,Weather View 32 v70,2013-03-14 05:25:00,
2013-03-14 01:30:00,31.0,25.9,29.73,SW,225,2.0,8.0,81,0.00,,,0.00,Weather View 32 v70,2013-03-14 05:30:00,
2013-03-14 01:35:00,32.0,26.8,29.72,WSW,248,2.0,8.0,81,0.00,,,0.00,Weather View 32 v70,2013-03-14 05:35:00,
2013-03-14 01:40:00,32.0,26.2,29.72,South,180,4.0,8.0,79,0.00,,,0.00,Weather View 32 v70,2013-03-14 05:40:00,
2013-03-14 01:45:00,31.0,24.9,29.73,SE,135,1.0,8.0,78,0.00,,,0.00,Weather View 32 v70,2013-03-14 05:45:00,
2013-03-14 01:50:00,31.0,24.6,29.73,SSW,202,3.0,8.0,77,0.00,,,0.00,Weather View 32 v70,2013-03-14 05:50:00,
2013-03-14 01:55:00,31.0,24.6,29.72,South,180,5.0,9.0,77,0.00,,,0.00,Weather View 32 v70,2013-03-14 05:55:00,
2013-03-14 02:00:00,31.0,24.3,29.72,SSE,158,3.0,9.0,76,0.00,,,0.00,Weather View 32 v70,2013-03-14 06:00:00,
2013-03-14 02:05:00,31.0,24.0,29.71,South,180,3.0,9.0,75,0.00,,,0.00,Weather View 32 v70,2013-03-14 06:05:00,
2013-03-14 02:10:00,31.0,24.0,29.72,West,270,1.0,9.0,75,0.00,,,0.00,Weather View 32 v70,2013-03-14 06:10:00,
2013-03-14 02:15:00,31.0,24.0,29.72,SSW,202,3.0,9.0,75,0.00,,,0.00,Weather View 32 v70,2013-03-14 06:15:00,
2013-03-14 02:20:00,31.0,24.0,29.72,WNW,292,2.0,9.0,75,0.00,,,0.00,Weather View 32 v70,2013-03-14 06:20:00,
2013-03-14 02:25:00,31.0,24.0,29.72,West,270,1.0,9.0,75,0.00,,,0.00,Weather View 32 v70,2013-03-14 06:25:00,
2013-03-14 02:30:00,31.0,24.0,29.72,West,270,5.0,13.0,75,0.00,,,0.00,Weather View 32 v70,2013-03-14 06:30:00,
2013-03-14 02:35:00,31.0,24.3,29.71,WSW,248,3.0,13.0,76,0.00,,,0.00,Weather View 32 v70,2013-03-14 06:35:00,
2013-03-14 02:40:00,31.0,24.6,29.71,SE,135,4.0,13.0,77,0.00,,,0.00,Weather View 32 v70,2013-03-14 06:40:00,
2013-03-14 02:45:00,31.0,24.6,29.72,SW,225,2.0,13.0,77,0.00,,,0.00,Weather View 32 v70,2013-03-14 06:45:00,
2013-03-14 02:50:00,30.0,24.0,29.71,WSW,248,8.0,13.0,78,0.00,,,0.00,Weather View 32 v70,2013-03-14 06:50:00,
2013-03-14 02:55:00,30.0,24.0,29.71,WSW,248,2.0,13.0,78,0.00,,,0.00,Weather View 32 v70,2013-03-14 06:55:00,
2013-03-14 03:00:00,30.0,23.7,29.71,South,180,8.0,13.0,77,0.00,,,0.00,Weather View 32 v70,2013-03-14 07:00:00,
2013-03-14 03:05:00,30.0,23.7,29.71,SSE,158,3.0,13.0,77,0.00,,,0.00,Weather View 32 v70,2013-03-14 07:05:00,
2013-03-14 03:10:00,30.0,23.4,29.71,South,180,1.0,13.0,76,0.00,,,0.00,Weather View 32 v70,2013-03-14 07:10:00,
2013-03-14 03:15:00,30.0,23.4,29.71,SW,225,3.0,13.0,76,0.00,,,0.00,Weather View 32 v70,2013-03-14 07:15:00,
2013-03-14 03:25:00,30.0,22.7,29.71,SSW,202,4.0,13.0,74,0.00,,,0.00,Weather View 32 v70,2013-03-14 07:25:00,
2013-03-14 03:30:00,30.0,22.7,29.71,WNW,292,2.0,12.0,74,0.00,,,0.00,Weather View 32 v70,2013-03-14 07:30:00,
2013-03-14 03:35:00,30.0,22.7,29.71,SE,135,3.0,12.0,74,0.00,,,0.00,Weather View 32 v70,2013-03-14 07:35:00,
2013-03-14 03:40:00,30.0,23.0,29.71,SSE,158,4.0,12.0,75,0.00,,,0.00,Weather View 32 v70,2013-03-14 07:40:00,
2013-03-14 03:45:00,30.0,22.7,29.71,SE,135,3.0,12.0,74,0.00,,,0.00,Weather View 32 v70,2013-03-14 07:45:00,
2013-03-14 03:50:00,30.0,22.7,29.71,SW,225,2.0,12.0,74,0.00,,,0.00,Weather View 32 v70,2013-03-14 07:50:00,
2013-03-14 03:55:00,30.0,22.7,29.71,SSE,158,2.0,12.0,74,0.00,,,0.00,Weather View 32 v70,2013-03-14 07:55:00,
2013-03-14 04:00:00,30.0,23.0,29.71,SW,225,4.0,11.0,75,0.00,,,0.00,Weather View 32 v70,2013-03-14 08:00:00,
2013-03-14 04:05:00,30.0,22.7,29.71,South,180,0.0,12.0,74,0.00,,,0.00,Weather View 32 v70,2013-03-14 08:05:00,
2013-03-14 04:10:00,30.0,22.7,29.71,SE,135,0.0,12.0,74,0.00,,,0.00,Weather View 32 v70,2013-03-14 08:10:00,
2013-03-14 04:20:00,30.0,22.7,29.71,South,180,3.0,12.0,74,0.00,,,0.00,Weather View 32 v70,2013-03-14 08:20:00,
2013-03-14 04:25:00,30.0,22.7,29.71,WNW,292,1.0,12.0,74,0.00,,,0.00,Weather View 32 v70,2013-03-14 08:25:00,
2013-03-14 04:30:00,30.0,22.7,29.71,SSE,158,3.0,12.0,74,0.00,,,0.00,Weather View 32 v70,2013-03-14 08:30:00,
2013-03-14 04:35:00,30.0,22.7,29.71,SE,135,4.0,12.0,74,0.00,,,0.00,Weather View 32 v70,2013-03-14 08:35:00,
2013-03-14 04:40:00,30.0,23.0,29.72,SSE,158,2.0,12.0,75,0.00,,,0.00,Weather View 32 v70,2013-03-14 08:40:00,
2013-03-14 04:45:00,30.0,23.0,29.72,SW,225,1.0,12.0,75,0.00,,,0.00,Weather View 32 v70,2013-03-14 08:45:00,
2013-03-14 04:50:00,30.0,23.0,29.72,SSE,158,1.0,12.0,75,0.00,,,0.00,Weather View 32 v70,2013-03-14 08:50:00,
2013-03-14 04:55:00,30.0,23.0,29.72,SSE,158,6.0,12.0,75,0.00,,,0.00,Weather View 32 v70,2013-03-14 08:55:00,
2013-03-14 05:05:00,30.0,23.0,29.72,West,270,3.0,9.0,75,0.00,,,0.00,Weather View 32 v70,2013-03-14 09:05:00,
2013-03-14 05:10:00,30.0,23.0,29.71,WSW,248,2.0,9.0,75,0.00,,,0.00,Weather View 32 v70,2013-03-14 09:10:00,
2013-03-14 05:14:00,30.0,23.0,29.71,SE,135,3.0,12.0,75,0.00,,,0.00,Weather View 32 v70,2013-03-14 09:14:00,
2013-03-14 05:15:00,30.0,22.7,29.72,West,270,1.0,15.0,74,0.00,,,0.00,Weather View 32 v70,2013-03-14 09:15:00,
2013-03-14 05:20:00,30.0,23.0,29.71,SSW,202,1.0,15.0,75,0.00,,,0.00,Weather View 32 v70,2013-03-14 09:20:00,
2013-03-14 05:35:00,29.0,22.4,29.71,SSW,202,2.0,15.0,76,0.00,,,0.00,Weather View 32 v70,2013-03-14 09:35:00,
2013-03-14 05:45:00,29.0,22.4,29.72,SSE,158,1.0,15.0,76,0.00,,,0.00,Weather View 32 v70,2013-03-14 09:45:00,
2013-03-14 05:55:00,29.0,22.7,29.71,SW,225,1.0,15.0,77,0.00,,,0.00,Weather View 32 v70,2013-03-14 09:55:00,
2013-03-14 05:59:00,30.0,22.7,29.72,SSE,158,1.0,12.0,74,0.00,,,0.00,Weather View 32 v70,2013-03-14 09:59:00,
2013-03-14 06:00:00,29.0,22.4,29.71,SE,135,3.0,15.0,76,0.00,,,0.00,Weather View 32 v70,2013-03-14 10:00:00,
2013-03-14 06:20:00,29.0,22.1,29.72,SE,135,0.0,8.0,75,0.00,,,0.00,Weather View 32 v70,2013-03-14 10:20:00,
2013-03-14 06:23:00,30.0,23.0,29.71,SSW,202,1.0,15.0,75,0.00,,,0.00,Weather View 32 v70,2013-03-14 10:23:00,
2013-03-14 06:29:00,30.0,23.4,29.72,SSE,158,5.0,15.0,76,0.00,,,0.00,Weather View 32 v70,2013-03-14 10:29:00,
2013-03-14 06:30:00,28.0,20.8,29.72,West,270,1.0,10.0,74,0.00,,,0.00,Weather View 32 v70,2013-03-14 10:30:00,
2013-03-14 06:35:00,28.0,21.1,29.72,South,180,1.0,10.0,75,0.00,,,0.00,Weather View 32 v70,2013-03-14 10:35:00,
2013-03-14 06:39:00,29.0,22.4,29.71,SSE,158,4.0,15.0,76,0.00,,,0.00,Weather View 32 v70,2013-03-14 10:39:00,
2013-03-14 06:40:00,28.0,20.8,29.72,WNW,292,2.0,10.0,74,0.00,,,0.00,Weather View 32 v70,2013-03-14 10:40:00,
2013-03-14 06:49:00,29.0,22.7,29.72,SE,135,2.0,15.0,77,0.00,,,0.00,Weather View 32 v70,2013-03-14 10:49:00,
2013-03-14 07:00:00,28.0,20.5,29.72,SE,135,1.0,11.0,73,0.00,,,0.00,Weather View 32 v70,2013-03-14 11:00:00,
2013-03-14 07:04:00,29.0,22.4,29.71,South,180,7.0,15.0,76,0.00,,,0.00,Weather View 32 v70,2013-03-14 11:04:00,
2013-03-14 07:14:00,29.0,22.1,29.72,SE,135,1.0,8.0,75,0.00,,,0.00,Weather View 32 v70,2013-03-14 11:14:00,
2013-03-14 07:15:00,28.0,20.1,29.72,SSE,158,2.0,11.0,72,0.00,,,0.00,Weather View 32 v70,2013-03-14 11:15:00,
2013-03-14 07:19:00,29.0,22.1,29.72,SE,135,0.0,8.0,75,0.00,,,0.00,Weather View 32 v70,2013-03-14 11:19:00,
2013-03-14 07:25:00,28.0,19.8,29.73,WNW,292,1.0,11.0,71,0.00,,,0.00,Weather View 32 v70,2013-03-14 11:25:00,
2013-03-14 07:40:00,29.0,20.8,29.73,WSW,248,2.0,11.0,71,0.00,,,0.00,Weather View 32 v70,2013-03-14 11:40:00,
2013-03-14 07:44:00,28.0,20.8,29.73,South,180,1.0,10.0,74,0.00,,,0.00,Weather View 32 v70,2013-03-14 11:44:00,
2013-03-14 07:54:00,28.0,20.1,29.73,WNW,292,5.0,11.0,72,0.00,,,0.00,Weather View 32 v70,2013-03-14 11:54:00,
2013-03-14 07:55:00,29.0,20.4,29.73,SSW,202,1.0,11.0,70,0.00,,,0.00,Weather View 32 v70,2013-03-14 11:55:00,
2013-03-14 08:04:00,28.0,20.1,29.72,WNW,292,1.0,11.0,72,0.00,,,0.00,Weather View 32 v70,2013-03-14 12:04:00,
2013-03-14 08:09:00,29.0,21.4,29.72,SSW,202,3.0,11.0,73,0.00,,,0.00,Weather View 32 v70,2013-03-14 12:09:00,
2013-03-14 08:19:00,28.0,19.8,29.73,WNW,292,3.0,11.0,71,0.00,,,0.00,Weather View 32 v70,2013-03-14 12:19:00,
2013-03-14 08:20:00,29.0,20.1,29.73,WNW,292,3.0,13.0,69,0.00,,,0.00,Weather View 32 v70,2013-03-14 12:20:00,
2013-03-14 08:25:00,29.0,20.1,29.73,WSW,248,4.0,13.0,69,0.00,,,0.00,Weather View 32 v70,2013-03-14 12:25:00,
2013-03-14 08:29:00,28.0,19.8,29.73,WSW,248,3.0,11.0,71,0.00,,,0.00,Weather View 32 v70,2013-03-14 12:29:00,
2013-03-14 08:40:00,29.0,20.1,29.73,West,270,8.0,13.0,69,0.00,,,0.00,Weather View 32 v70,2013-03-14 12:40:00,
2013-03-14 08:44:00,29.0,20.8,29.74,WSW,248,1.0,11.0,71,0.00,,,0.00,Weather View 32 v70,2013-03-14 12:44:00,
2013-03-14 08:59:00,29.0,20.4,29.73,SW,225,3.0,11.0,70,0.00,,,0.00,Weather View 32 v70,2013-03-14 12:59:00,
2013-03-14 09:04:00,29.0,20.4,29.73,West,270,1.0,11.0,70,0.00,,,0.00,Weather View 32 v70,2013-03-14 13:04:00,
2013-03-14 09:14:00,29.0,20.1,29.73,WNW,292,5.0,11.0,69,0.00,,,0.00,Weather View 32 v70,2013-03-14 13:14:00,
2013-03-14 09:25:00,29.0,20.1,29.73,WSW,248,4.0,13.0,69,0.00,,,0.00,Weather View 32 v70,2013-03-14 13:25:00,
2013-03-14 09:34:00,29.0,20.1,29.72,SE,135,3.0,13.0,69,0.00,,,0.00,Weather View 32 v70,2013-03-14 13:34:00,
2013-03-14 09:44:00,29.0,20.1,29.73,SSE,158,3.0,13.0,69,0.00,,,0.00,Weather View 32 v70,2013-03-14 13:44:00,
2013-03-14 09:54:00,29.0,19.8,29.72,WNW,292,3.0,13.0,68,0.00,,,0.00,Weather View 32 v70,2013-03-14 13:54:00,
2013-03-14 10:04:00,30.0,20.7,29.72,South,180,1.0,13.0,68,0.00,,,0.00,Weather View 32 v70,2013-03-14 14:04:00,
2013-03-14 10:14:00,30.0,20.0,29.72,SW,225,0.0,13.0,66,0.00,,,0.00,Weather View 32 v70,2013-03-14 14:14:00,
2013-03-14 10:24:00,30.0,20.0,29.72,SSE,158,5.0,11.0,66,0.00,,,0.00,Weather View 32 v70,2013-03-14 14:24:00,
2013-03-14 10:29:00,31.0,20.2,29.72,WNW,292,1.0,11.0,64,0.00,,,0.00,Weather View 32 v70,2013-03-14 14:29:00,
2013-03-14 10:39:00,31.0,19.9,29.72,SW,225,2.0,11.0,63,0.00,,,0.00,Weather View 32 v70,2013-03-14 14:39:00,
2013-03-14 10:44:00,31.0,19.9,29.72,West,270,5.0,11.0,63,0.00,,,0.00,Weather View 32 v70,2013-03-14 14:44:00,
2013-03-14 10:54:00,32.0,21.2,29.72,SE,135,2.0,11.0,64,0.00,,,0.00,Weather View 32 v70,2013-03-14 14:54:00,
2013-03-14 11:04:00,32.0,19.7,29.71,SW,225,1.0,11.0,60,0.00,,,0.00,Weather View 32 v70,2013-03-14 15:04:00,
2013-03-14 11:09:00,32.0,19.7,29.71,SW,225,1.0,11.0,60,0.00,,,0.00,Weather View 32 v70,2013-03-14 15:09:00,
2013-03-14 11:14:00,31.0,17.9,29.71,West,270,3.0,11.0,58,0.00,,,0.00,Weather View 32 v70,2013-03-14 15:14:00,
2013-03-14 11:24:00,32.0,19.7,29.71,WSW,248,3.0,11.0,60,0.00,,,0.00,Weather View 32 v70,2013-03-14 15:24:00,
2013-03-14 11:29:00,32.0,19.7,29.71,SSW,202,2.0,11.0,60,0.00,,,0.00,Weather View 32 v70,2013-03-14 15:29:00,
2013-03-14 11:39:00,33.0,20.2,29.70,SW,225,1.0,10.0,59,0.00,,,0.00,Weather View 32 v70,2013-03-14 15:39:00,
2013-03-14 11:49:00,32.0,19.7,29.70,SE,135,3.0,10.0,60,0.00,,,0.00,Weather View 32 v70,2013-03-14 15:49:00,
2013-03-14 11:59:00,32.0,20.4,29.70,SW,225,2.0,10.0,62,0.00,,,0.00,Weather View 32 v70,2013-03-14 15:59:00,
2013-03-14 12:04:00,31.0,19.1,29.70,West,270,6.0,13.0,61,0.00,,,0.00,Weather View 32 v70,2013-03-14 16:04:00,
2013-03-14 12:14:00,33.0,20.6,29.69,WSW,248,3.0,13.0,60,0.00,,,0.00,Weather View 32 v70,2013-03-14 16:14:00,
2013-03-14 12:24:00,32.0,20.4,29.69,WNW,292,3.0,13.0,62,0.00,,,0.00,Weather View 32 v70,2013-03-14 16:24:00,
2013-03-14 12:29:00,33.0,21.4,29.69,SW,225,9.0,14.0,62,0.00,,,0.00,Weather View 32 v70,2013-03-14 16:29:00,
2013-03-14 12:39:00,33.0,21.8,29.69,SE,135,3.0,14.0,63,0.00,,,0.00,Weather View 32 v70,2013-03-14 16:39:00,
2013-03-14 12:44:00,32.0,19.3,29.69,SW,225,3.0,14.0,59,0.00,,,0.00,Weather View 32 v70,2013-03-14 16:44:00,
2013-03-14 12:49:00,32.0,20.1,29.69,South,180,4.0,14.0,61,0.00,,,0.00,Weather View 32 v70,2013-03-14 16:49:00,
2013-03-14 12:59:00,33.0,21.0,29.68,South,180,2.0,14.0,61,0.00,,,0.00,Weather View 32 v70,2013-03-14 16:59:00,
2013-03-14 13:04:00,33.0,21.0,29.68,WSW,248,1.0,14.0,61,0.00,,,0.00,Weather View 32 v70,2013-03-14 17:04:00,
2013-03-14 13:09:00,34.0,22.0,29.68,SW,225,2.0,14.0,61,0.00,,,0.00,Weather View 32 v70,2013-03-14 17:09:00,
2013-03-14 13:14:00,34.0,21.2,29.68,South,180,3.0,14.0,59,0.00,,,0.00,Weather View 32 v70,2013-03-14 17:14:00,
2013-03-14 13:19:00,34.0,20.4,29.67,WNW,292,3.0,14.0,57,0.00,,,0.00,Weather View 32 v70,2013-03-14 17:19:00,
2013-03-14 13:24:00,34.0,20.4,29.68,SSW,202,5.0,14.0,57,0.00,,,0.00,Weather View 32 v70,2013-03-14 17:24:00,
2013-03-14 13:29:00,34.0,19.1,29.68,SE,135,5.0,13.0,54,0.00,,,0.00,Weather View 32 v70,2013-03-14 17:29:00,
2013-03-14 13:39:00,34.0,19.9,29.67,WNW,292,6.0,13.0,56,0.00,,,0.00,Weather View 32 v70,2013-03-14 17:39:00,
2013-03-14 13:49:00,34.0,18.6,29.67,SW,225,3.0,13.0,53,0.00,,,0.00,Weather View 32 v70,2013-03-14 17:49:00,
2013-03-14 13:59:00,34.0,18.6,29.66,SW,225,5.0,14.0,53,0.00,,,0.00,Weather View 32 v70,2013-03-14 17:59:00,
2013-03-14 14:09:00,34.0,18.6,29.66,WSW,248,1.0,14.0,53,0.00,,,0.00,Weather View 32 v70,2013-03-14 18:09:00,
2013-03-14 14:19:00,34.0,18.2,29.66,SSW,202,3.0,14.0,52,0.00,,,0.00,Weather View 32 v70,2013-03-14 18:19:00,
2013-03-14 14:24:00,33.0,17.3,29.66,West,270,3.0,14.0,52,0.00,,,0.00,Weather View 32 v70,2013-03-14 18:24:00,
2013-03-14 14:34:00,32.0,16.8,29.66,WSW,248,2.0,14.0,53,0.00,,,0.00,Weather View 32 v70,2013-03-14 18:34:00,
2013-03-14 14:44:00,32.0,17.2,29.66,SSE,158,1.0,14.0,54,0.00,,,0.00,Weather View 32 v70,2013-03-14 18:44:00,
2013-03-14 14:54:00,32.0,16.4,29.66,SSE,158,3.0,11.0,52,0.00,,,0.00,Weather View 32 v70,2013-03-14 18:54:00,
2013-03-14 14:59:00,32.0,16.4,29.65,SW,225,2.0,11.0,52,0.00,,,0.00,Weather View 32 v70,2013-03-14 18:59:00,
2013-03-14 15:09:00,32.0,16.8,29.66,SW,225,6.0,12.0,53,0.00,,,0.00,Weather View 32 v70,2013-03-14 19:09:00,
2013-03-14 15:19:00,32.0,17.2,29.66,WNW,292,1.0,12.0,54,0.00,,,0.00,Weather View 32 v70,2013-03-14 19:19:00,
2013-03-14 15:24:00,32.0,17.2,29.66,SSE,158,1.0,12.0,54,0.00,,,0.00,Weather View 32 v70,2013-03-14 19:24:00,
2013-03-14 15:34:00,33.0,17.7,29.66,SSE,158,1.0,12.0,53,0.00,,,0.00,Weather View 32 v70,2013-03-14 19:34:00,
2013-03-14 15:44:00,32.0,17.6,29.66,West,270,3.0,13.0,55,0.00,,,0.00,Weather View 32 v70,2013-03-14 19:44:00,
2013-03-14 15:49:00,31.0,17.5,29.66,SW,225,3.0,13.0,57,0.00,,,0.00,Weather View 32 v70,2013-03-14 19:49:00,
2013-03-14 15:59:00,31.0,17.5,29.66,South,180,1.0,13.0,57,0.00,,,0.00,Weather View 32 v70,2013-03-14 19:59:00,
2013-03-14 16:09:00,31.0,18.7,29.66,WSW,248,2.0,13.0,60,0.00,,,0.00,Weather View 32 v70,2013-03-14 20:09:00,
2013-03-14 16:14:00,31.0,18.3,29.66,WSW,248,3.0,13.0,59,0.00,,,0.00,Weather View 32 v70,2013-03-14 20:14:00,
2013-03-14 16:24:00,30.0,18.9,29.67,WSW,248,10.0,13.0,63,0.00,,,0.00,Weather View 32 v70,2013-03-14 20:24:00,
2013-03-14 16:34:00,30.0,18.9,29.67,WNW,292,2.0,13.0,63,0.00,,,0.00,Weather View 32 v70,2013-03-14 20:34:00,
2013-03-14 16:39:00,30.0,19.3,29.67,South,180,5.0,13.0,64,0.00,,,0.00,Weather View 32 v70,2013-03-14 20:39:00,
2013-03-14 16:49:00,29.0,20.4,29.67,SSE,158,8.0,13.0,70,0.00,,,0.00,Weather View 32 v70,2013-03-14 20:49:00,
2013-03-14 16:59:00,28.0,21.1,29.67,SE,135,3.0,14.0,75,0.00,,,0.00,Weather View 32 v70,2013-03-14 20:59:00,
2013-03-14 17:09:00,28.0,22.3,29.68,SW,225,10.0,14.0,79,0.00,,,0.00,Weather View 32 v70,2013-03-14 21:09:00,
2013-03-14 17:14:00,27.0,22.2,29.68,South,180,5.0,14.0,82,0.00,,,0.00,Weather View 32 v70,2013-03-14 21:14:00,
2013-03-14 17:24:00,26.0,21.0,29.69,WSW,248,13.0,14.0,81,0.00,,,0.00,Weather View 32 v70,2013-03-14 21:24:00,
2013-03-14 17:30:00,26.0,21.0,29.69,SW,225,4.0,14.0,81,0.00,,,0.00,Weather View 32 v70,2013-03-14 21:30:00,
2013-03-14 17:39:00,26.0,20.1,29.69,SE,135,7.0,14.0,78,0.00,,,0.00,Weather View 32 v70,2013-03-14 21:39:00,
2013-03-14 17:49:00,26.0,18.5,29.70,WNW,292,5.0,17.0,73,0.00,,,0.00,Weather View 32 v70,2013-03-14 21:49:00,
2013-03-14 17:59:00,26.0,18.2,29.70,WSW,248,4.0,17.0,72,0.00,,,0.00,Weather View 32 v70,2013-03-14 21:59:00,
2013-03-14 18:04:00,25.0,16.6,29.71,SSW,202,10.0,19.0,70,0.00,,,0.00,Weather View 32 v70,2013-03-14 22:04:00,
2013-03-14 18:14:00,25.0,16.3,29.71,SW,225,5.0,19.0,69,0.00,,,0.00,Weather View 32 v70,2013-03-14 22:14:00,
2013-03-14 18:24:00,24.0,13.9,29.71,South,180,12.0,19.0,65,0.00,,,0.00,Weather View 32 v70,2013-03-14 22:24:00,
2013-03-14 18:30:00,24.0,13.6,29.72,WNW,292,8.0,19.0,64,0.00,,,0.00,Weather View 32 v70,2013-03-14 22:30:00,
2013-03-14 18:39:00,24.0,13.2,29.73,WNW,292,13.0,21.0,63,0.00,,,0.00,Weather View 32 v70,2013-03-14 22:39:00,
2013-03-14 18:49:00,23.0,11.9,29.73,SSW,202,6.0,21.0,62,0.00,,,0.00,Weather View 32 v70,2013-03-14 22:49:00,
2013-03-14 18:59:00,23.0,12.3,29.73,SSW,202,10.0,21.0,63,0.00,,,0.00,Weather View 32 v70,2013-03-14 22:59:00,
2013-03-14 19:09:00,22.0,11.7,29.76,WNW,292,9.0,21.0,64,0.00,,,0.00,Weather View 32 v70,2013-03-14 23:09:00,
2013-03-14 19:19:00,22.0,11.3,29.75,WNW,292,6.0,21.0,63,0.00,,,0.00,Weather View 32 v70,2013-03-14 23:19:00,
2013-03-14 19:24:00,21.0,10.0,29.76,WNW,292,10.0,21.0,62,0.00,,,0.00,Weather View 32 v70,2013-03-14 23:24:00,
2013-03-14 19:29:00,21.0,9.3,29.76,WSW,248,10.0,21.0,60,0.00,,,0.00,Weather View 32 v70,2013-03-14 23:29:00,
2013-03-14 19:39:00,21.0,9.3,29.76,West,270,10.0,21.0,60,0.00,,,0.00,Weather View 32 v70,2013-03-14 23:39:00,
2013-03-14 19:44:00,20.0,8.7,29.77,WNW,292,5.0,21.0,61,0.00,,,0.00,Weather View 32 v70,2013-03-14 23:44:00,
2013-03-14 19:54:00,20.0,9.1,29.77,SSW,202,8.0,21.0,62,0.00,,,0.00,Weather View 32 v70,2013-03-14 23:54:00,
2013-03-14 20:04:00,20.0,9.1,29.77,WNW,292,5.0,20.0,62,0.00,,,0.00,Weather View 32 v70,2013-03-15 00:04:00,
2013-03-14 20:14:00,19.0,8.1,29.78,West,270,10.0,20.0,62,0.00,,,0.00,Weather View 32 v70,2013-03-15 00:14:00,
2013-03-14 20:24:00,19.0,8.5,29.78,SSW,202,9.0,20.0,63,0.00,,,0.00,Weather View 32 v70,2013-03-15 00:24:00,
2013-03-14 20:29:00,19.0,8.5,29.79,WSW,248,6.0,20.0,63,0.00,,,0.00,Weather View 32 v70,2013-03-15 00:29:00,
2013-03-14 20:39:00,18.0,7.9,29.79,WNW,292,11.0,21.0,64,0.00,,,0.00,Weather View 32 v70,2013-03-15 00:39:00,
2013-03-14 20:44:00,18.0,7.9,29.79,WSW,248,4.0,21.0,64,0.00,,,0.00,Weather View 32 v70,2013-03-15 00:44:00,
2013-03-14 20:54:00,18.0,7.9,29.79,SW,225,6.0,21.0,64,0.00,,,0.00,Weather View 32 v70,2013-03-15 00:54:00,
2013-03-14 20:59:00,18.0,7.9,29.79,West,270,9.0,21.0,64,0.00,,,0.00,Weather View 32 v70,2013-03-15 00:59:00,
2013-03-14 21:09:00,17.0,6.6,29.78,SSE,158,5.0,21.0,63,0.00,,,0.00,Weather View 32 v70,2013-03-15 01:09:00,
2013-03-14 21:19:00,17.0,6.2,29.78,SSE,158,2.0,21.0,62,0.00,,,0.00,Weather View 32 v70,2013-03-15 01:19:00,
2013-03-14 21:29:00,17.0,5.5,29.78,SSE,158,8.0,28.0,60,0.00,,,0.00,Weather View 32 v70,2013-03-15 01:29:00,
2013-03-14 21:34:00,17.0,5.5,29.77,West,270,5.0,28.0,60,0.00,,,0.00,Weather View 32 v70,2013-03-15 01:34:00,
2013-03-14 21:44:00,17.0,5.5,29.78,WSW,248,5.0,28.0,60,0.00,,,0.00,Weather View 32 v70,2013-03-15 01:44:00,
2013-03-14 21:49:00,17.0,5.5,29.78,SSE,158,6.0,28.0,60,0.00,,,0.00,Weather View 32 v70,2013-03-15 01:49:00,
2013-03-14 21:54:00,17.0,5.5,29.78,WSW,248,6.0,28.0,60,0.00,,,0.00,Weather View 32 v70,2013-03-15 01:54:00,
2013-03-14 22:04:00,17.0,5.5,29.77,SSE,158,14.0,28.0,60,0.00,,,0.00,Weather View 32 v70,2013-03-15 02:04:00,
2013-03-14 22:09:00,17.0,5.9,29.79,West,270,3.0,28.0,61,0.00,,,0.00,Weather View 32 v70,2013-03-15 02:09:00,
2013-03-14 22:19:00,17.0,5.9,29.79,West,270,3.0,28.0,61,0.00,,,0.00,Weather View 32 v70,2013-03-15 02:19:00,
2013-03-14 22:29:00,17.0,5.9,29.79,WNW,292,8.0,27.0,61,0.00,,,0.00,Weather View 32 v70,2013-03-15 02:29:00,
2013-03-14 22:39:00,17.0,6.2,29.78,WNW,292,4.0,27.0,62,0.00,,,0.00,Weather View 32 v70,2013-03-15 02:39:00,
2013-03-14 22:44:00,17.0,6.2,29.78,West,270,3.0,27.0,62,0.00,,,0.00,Weather View 32 v70,2013-03-15 02:44:00,
2013-03-14 22:54:00,16.0,6.0,29.78,WSW,248,4.0,27.0,64,0.00,,,0.00,Weather View 32 v70,2013-03-15 02:54:00,
2013-03-14 23:04:00,16.0,6.0,29.78,South,180,2.0,27.0,64,0.00,,,0.00,Weather View 32 v70,2013-03-15 03:04:00,
2013-03-14 23:05:00,16.0,3.8,29.78,SSE,158,5.0,27.0,58,0.00,,,0.00,Weather View 32 v70,2013-03-15 03:05:00,
2013-03-14 23:09:00,16.0,5.3,29.78,South,180,10.0,18.0,62,0.00,,,0.00,Weather View 32 v70,2013-03-15 03:09:00,
2013-03-14 23:10:00,16.0,3.8,29.78,WNW,292,3.0,27.0,58,0.00,,,0.00,Weather View 32 v70,2013-03-15 03:10:00,
2013-03-14 23:14:00,16.0,4.9,29.78,WSW,248,5.0,18.0,61,0.00,,,0.00,Weather View 32 v70,2013-03-15 03:14:00,
2013-03-14 23:15:00,16.0,4.2,29.79,WSW,248,2.0,27.0,59,0.00,,,0.00,Weather View 32 v70,2013-03-15 03:15:00,
2013-03-14 23:20:00,16.0,4.2,29.79,South,180,5.0,27.0,59,0.00,,,0.00,Weather View 32 v70,2013-03-15 03:20:00,
2013-03-14 23:24:00,16.0,4.6,29.78,WNW,292,7.0,21.0,60,0.00,,,0.00,Weather View 32 v70,2013-03-15 03:24:00,
2013-03-14 23:25:00,16.0,4.2,29.78,West,270,5.0,27.0,59,0.00,,,0.00,Weather View 32 v70,2013-03-15 03:25:00,
2013-03-14 23:30:00,15.0,3.3,29.79,West,270,8.0,27.0,59,0.00,,,0.00,Weather View 32 v70,2013-03-15 03:30:00,
2013-03-14 23:33:00,16.0,3.8,29.78,West,270,2.0,21.0,58,0.00,,,0.00,Weather View 32 v70,2013-03-15 03:33:00,
2013-03-14 23:35:00,15.0,3.3,29.79,WNW,292,8.0,27.0,59,0.00,,,0.00,Weather View 32 v70,2013-03-15 03:35:00,
2013-03-14 23:39:00,16.0,3.5,29.78,West,270,9.0,21.0,57,0.00,,,0.00,Weather View 32 v70,2013-03-15 03:39:00,
2013-03-14 23:44:00,16.0,3.5,29.79,WNW,292,7.0,21.0,57,0.00,,,0.00,Weather View 32 v70,2013-03-15 03:44:00,
2013-03-14 23:45:00,15.0,3.6,29.78,WSW,248,3.0,27.0,60,0.00,,,0.00,Weather View 32 v70,2013-03-15 03:45:00,
2013-03-14 23:50:00,15.0,3.6,29.78,WNW,292,7.0,24.0,60,0.00,,,0.00,Weather View 32 v70,2013-03-15 03:50:00,
2013-03-14 23:54:00,16.0,3.8,29.78,SSE,158,5.0,27.0,58,0.00,,,0.00,Weather View 32 v70,2013-03-15 03:54:00,
2013-03-14 23:55:00,15.0,3.6,29.78,SSW,202,5.0,24.0,60,0.00,,,0.00,Weather View 32 v70,2013-03-15 03:55:00,